Lapse_Rate
7.8 7.6 7.6 7.9 7.1 7.1 7.4 7.3 7.1 6.6 6.7 6.5 6.5 6.6 6.0 6.1 6.5 6.4 5.5 5.3 6.0 6.4 6.5 6.7 6.8 6.9 7.0 6.9 6.8 6.8 6.7 6.6 6.6 6.6 6.5 6.2 6.2 6.0 6.2 6.3 6.4 6.3 6.0 6.1 5.9 5.8 5.8 5.7 5.5
7.8 7.2 7.7 7.0 7.6 7.9 7.4 7.4 6.9 6.3 6.4 6.7 6.5 6.3 6.1 5.7 5.2 5.3 5.5 5.7 6.2 6.4 6.5 6.7 6.8 6.9 6.9 6.8 6.8 6.8 6.9 6.6 6.6 6.6 6.6 6.4 6.3 6.3 6.2 6.2 6.0 6.2 5.9 5.9 5.8 5.8 5.8 5.6 5.5
7.3 7.7 6.9 6.9 8.8 7.7 7.6 7.4 7.2 6.8 6.3 6.2 6.0 5.6 5.6 5.2 5.1 5.4 5.7 5.9 6.2 6.4 6.4 6.4 6.6 6.6 6.6 6.6 6.7 6.7 6.9 6.9 6.7 6.8 6.8 6.8 6.7 6.6 6.3 6.3 5.9 5.8 5.8 5.9 5.8 5.9 5.8 5.7 5.4
6.3 7.3 7.5 7.6 8.5 7.8 7.7 7.6 7.0 6.8 6.4 5.9 5.7 5.4 5.1 5.0 5.2 5.3 5.6 6.3 6.2 6.5 6.4 6.5 6.7 6.7 6.6 6.6 6.5 6.4 6.6 6.9 6.7 6.8 6.9 7.0 6.7 6.7 6.6 6.3 6.0 5.9 5.6 5.7 5.7 5.7 5.7 5.6 5.5
7.3 6.4 7.4 8.2 9.0 8.1 7.9 7.7 7.5 7.0 6.5 6.4 6.6 5.2 5.3 5.3 5.5 5.5 5.3 6.2 6.0 6.5 6.4 6.5 6.6 6.7 6.8 6.8 6.6 6.5 6.5 6.4 6.6 6.7 6.7 6.8 6.9 6.7 6.6 6.4 6.0 5.7 5.9 5.5 5.5 5.6 5.6 5.6 5.5
7.4 7.4 7.9 8.0 9.1 8.9 8.0 8.0 7.5 7.0 6.7 6.5 6.7 6.4 5.8 5.7 5.3 5.4 5.3 5.8 5.7 6.1 6.3 6.4 6.5 6.7 6.8 6.8 6.9 6.8 6.6 6.5 6.3 6.5 6.6 6.6 6.7 6.7 6.5 6.3 6.2 6.0 6.1 5.9 5.7 5.5 5.7 5.7 5.7
7.5 7.8 7.6 8.4 8.4 8.8 8.2 8.3 7.6 7.3 7.1 6.9 6.9 7.3 6.3 6.0 5.4 5.2 5.8 5.9 5.9 6.3 6.5 6.6 6.6 6.6 6.7 6.7 6.7 6.7 6.7 6.6 6.5 6.5 6.4 6.5 6.5 6.5 6.4 6.3 6.2 6.1 6.1 6.1 5.9 5.7 5.6 5.6 5.6
8.3 8.2 8.2 8.4 8.3 8.8 8.7 8.4 7.8 7.3 7.0 6.9 7.1 7.3 6.8 6.3 5.7 5.5 5.3 5.9 6.1 6.2 6.5 6.6 6.4 6.5 6.6 6.7 6.9 6.8 6.6 6.6 6.5 6.3 6.2 6.2 6.2 6.3 6.3 6.3 6.2 5.9 6.0 6.0 6.2 6.1 5.6 5.7 5.7
8.0 8.4 8.0 8.4 8.6 8.5 8.5 8.5 8.0 7.9 7.9 7.6 7.7 7.7 7.1 6.9 6.5 6.4 5.4 6.4 6.5 6.6 6.3 6.6 6.5 6.4 6.4 6.6 6.6 6.6 6.6 6.5 6.4 6.3 6.1 6.1 6.2 6.2 6.3 6.2 6.0 6.1 5.8 5.8 6.1 5.8 5.6 5.5 5.6
8.2 8.4 8.3 8.6 7.7 9.0 8.4 8.2 7.9 8.5 8.3 8.0 7.9 7.4 7.4 7.3 6.9 6.5 6.5 6.6 7.1 6.7 6.7 6.8 6.5 6.4 6.4 6.6 6.6 6.6 6.4 6.5 6.4 6.2 6.0 6.1 6.1 6.1 6.1 6.0 6.0 6.1 6.1 6.0 5.9 5.8 5.9 5.5 5.1
8.3 8.7 8.8 9.0 8.2 8.7 9.2 8.9 7.4 7.9 8.6 8.2 8.2 8.1 7.9 7.6 7.1 6.9 6.8 5.8 6.8 7.1 6.7 6.9 6.6 6.2 6.4 6.6 6.6 6.6 6.5 6.5 6.2 6.2 6.2 6.2 6.0 6.0 6.5 6.1 6.5 6.5 6.4 6.0 6.0 5.9 5.8 6.0 5.8
8.2 8.7 9.6 9.2 9.1 9.1 8.4 7.3 7.8 8.4 8.5 8.0 8.0 8.1 8.1 7.8 7.1 6.8 6.6 6.3 6.4 6.8 6.9 6.8 6.7 6.6 6.6 6.2 6.1 6.6 6.4 6.1 5.9 6.0 5.9 5.8 6.0 5.8 5.9 5.9 6.0 6.1 6.2 6.0 6.0 5.6 5.5 5.7 6.0
8.7 9.0 9.4 9.5 9.5 9.1 8.6 8.6 7.9 7.6 7.6 7.8 8.1 7.8 8.0 7.9 7.4 7.0 6.6 6.4 6.8 6.8 6.8 6.7 6.5 6.5 6.4 6.3 6.0 5.9 5.9 6.1 5.5 5.6 5.4 5.5 5.7 5.7 5.7 5.7 5.8 5.7 6.0 6.0 5.8 5.4 5.7 5.3 5.5
9.1 9.0 9.7 9.7 9.6 9.5 9.2 8.8 8.2 8.3 7.5 7.1 7.2 7.7 7.9 7.6 7.5 7.2 6.9 6.9 7.2 7.1 6.7 6.9 6.9 6.6 6.1 6.1 6.1 5.9 5.7 5.6 5.8 5.5 5.2 5.3 5.4 5.4 5.3 5.7 5.7 5.8 5.8 6.0 5.7 5.3 5.5 5.6 5.4
8.9 9.6 9.7 9.7 9.6 9.5 9.3 8.9 9.2 9.6 8.1 7.3 6.8 7.5 7.1 7.1 7.2 7.3 7.1 7.0 7.3 7.5 7.3 7.1 7.0 7.0 6.6 6.4 6.3 6.0 5.3 5.0 4.9 5.1 5.2 5.0 5.1 4.8 5.0 5.4 5.6 5.5 5.7 5.5 5.6 5.5 5.5 5.3 5.7
9.2 9.7 9.5 9.6 9.6 9.3 9.5 9.6 9.2 8.9 8.8 7.9 7.4 7.3 7.1 7.0 6.8 7.2 7.2 7.1 7.3 7.5 7.4 7.5 7.1 7.3 7.0 6.7 6.4 6.2 5.6 5.0 4.9 5.0 4.9 5.0 5.0 5.0 4.5 4.9 5.4 5.7 5.6 5.5 5.5 5.3 5.5 5.5 5.4
9.0 9.0 8.6 9.1 9.4 9.4 9.4 9.2 9.0 8.8 8.8 8.6 7.7 7.0 7.6 7.2 7.2 7.3 7.4 7.3 7.4 7.6 7.5 7.4 7.4 7.4 7.4 6.7 6.5 6.4 5.8 5.8 5.5 5.2 5.1 5.0 4.9 4.7 4.6 4.7 5.1 5.5 5.4 5.4 5.6 5.5 5.3 5.3 5.1
8.8 9.0 8.9 9.0 9.0 9.2 9.3 9.2 8.9 8.9 9.1 9.0 7.8 7.2 7.4 6.9 7.3 7.5 7.6 7.5 7.6 7.8 7.6 7.4 7.4 7.4 7.2 6.9 6.8 6.5 6.3 6.0 5.9 5.7 5.2 5.0 5.0 5.1 4.7 4.9 5.3 5.0 4.7 5.1 5.5 5.4 5.2 5.1 5.1
9.5 9.5 9.2 8.9 9.1 9.0 9.2 9.5 9.2 9.0 9.2 8.9 8.0 7.2 7.2 6.9 7.2 7.6 7.5 7.7 7.8 8.0 7.7 7.5 7.3 7.3 7.4 7.1 6.9 6.8 6.6 6.7 6.2 6.0 5.5 5.3 5.1 5.0 5.1 5.1 5.0 5.0 5.1 4.9 5.0 5.4 5.2 5.0 5.3
9.2 9.3 9.4 9.0 9.2 9.0 9.3 9.4 9.7 9.0 8.5 8.2 8.6 7.9 8.3 7.6 6.8 7.3 7.4 7.5 7.7 7.9 7.9 7.8 7.5 7.3 7.6 7.4 7.2 6.9 6.6 6.6 6.5 6.3 6.2 5.9 5.8 5.5 5.3 5.4 5.4 5.4 5.5 5.4 5.3 5.3 5.1 5.1 5.3
9.8 9.2 9.4 9.0 9.8 9.4 9.3 9.5 9.2 8.5 9.3 8.5 8.3 8.9 9.3 8.0 7.4 8.2 7.8 7.3 7.6 7.8 8.0 7.7 7.5 7.5 7.4 7.5 7.4 7.1 6.8 6.7 6.6 6.5 6.5 6.2 5.8 5.7 5.5 5.3 5.2 5.7 5.5 5.4 5.4 5.1 5.1 5.2 5.3
9.7 9.6 9.9 9.5 9.1 9.0 9.5 9.4 9.0 9.2 9.1 9.0 9.0 8.3 9.1 8.1 7.0 7.6 8.5 7.5 7.6 7.9 8.1 7.6 7.5 7.5 7.4 7.4 7.4 7.1 7.0 6.8 6.8 6.5 6.6 6.5 6.4 6.0 5.7 5.7 5.7 5.5 5.3 5.2 5.2 5.2 5.3 5.3 5.2
9.5 9.6 9.6 9.6 9.3 9.6 9.5 9.4 8.6 8.8 9.0 9.2 9.1 8.1 8.2 8.1 7.6 7.9 8.3 7.9 7.7 8.1 8.0 7.5 7.5 7.4 7.6 7.5 7.3 7.1 6.7 6.7 6.9 6.7 6.6 6.5 6.7 6.5 6.4 6.1 5.9 5.7 5.5 5.5 5.5 5.3 5.3 5.5 5.5
9.1 9.4 9.5 9.6 9.5 8.9 9.4 9.3 8.8 8.8 9.4 9.1 8.7 8.4 8.9 8.4 7.9 8.0 8.1 7.9 7.6 8.1 8.1 7.4 7.4 7.4 7.5 7.2 7.2 7.1 6.8 6.6 6.3 6.4 6.6 6.6 6.5 6.5 6.4 6.1 5.9 5.8 5.6 5.4 5.5 5.5 5.4 5.4 5.5
9.1 9.3 9.1 8.2 7.7 7.2 9.3 9.2 9.0 9.2 9.5 8.8 8.7 8.7 8.6 8.5 8.3 7.4 7.0 8.1 7.8 7.9 8.0 7.6 7.5 7.2 7.4 7.2 7.0 6.9 6.7 6.3 6.3 6.2 6.1 6.4 6.3 6.0 6.4 6.0 5.8 5.8 5.7 5.5 5.4 5.4 5.4 5.5 5.4
9.3 9.4 9.0 7.5 7.3 8.4 9.6 9.2 9.2 9.1 9.5 9.2 8.9 8.7 8.6 8.2 7.5 7.4 6.5 8.2 8.0 8.0 8.1 7.7 7.6 7.2 7.1 7.2 7.1 7.1 6.4 6.4 5.9 5.0 5.8 5.7 5.9 6.1 6.1 6.0 5.8 5.8 5.6 5.3 5.4 5.3 5.4 5.3 5.2
9.2 9.3 9.1 9.1 9.3 9.0 9.2 8.7 8.7 9.0 9.4 9.4 9.1 8.7 8.5 8.0 7.6 7.7 7.3 8.2 7.9 7.8 8.1 7.7 7.6 7.3 7.2 7.1 7.4 7.2 6.5 6.0 5.4 5.1 5.0 5.6 5.6 6.0 6.0 5.9 5.8 5.7 5.6 5.5 5.4 5.5 5.5 5.2 5.1
9.2 9.2 9.5 9.4 7.9 7.8 8.4 8.4 9.0 8.9 9.3 9.1 8.6 8.6 8.1 7.9 7.6 7.5 7.9 8.1 7.9 8.4 8.3 8.0 7.7 7.3 7.0 6.9 7.3 7.2 6.5 6.0 4.8 4.7 4.9 5.4 5.7 6.0 6.0 5.8 5.7 5.8 5.7 5.6 5.5 5.4 5.6 5.5 5.3
9.3 9.3 9.5 9.6 9.5 7.8 6.9 8.1 9.1 9.2 8.9 8.9 7.6 8.2 8.5 8.1 8.0 7.9 7.7 7.9 8.1 8.0 7.8 7.5 7.4 7.1 7.0 7.1 7.4 7.3 6.6 6.0 5.8 5.3 5.4 5.7 6.0 6.2 6.1 6.0 5.8 5.6 5.4 5.6 5.6 5.4 5.5 5.6 5.5
9.6 9.6 9.5 9.5 9.2 9.1 9.0 8.7 8.8 8.6 9.0 8.3 8.4 5.4 8.9 8.2 7.9 7.7 7.4 8.1 7.8 7.6 7.5 7.5 7.2 7.0 7.1 7.1 7.2 7.1 6.5 6.4 6.4 6.1 6.2 6.3 6.2 6.1 6.0 6.0 5.9 5.7 5.5 5.4 5.3 5.3 5.3 5.4 5.6
Wind_Speed
16 17 6 5 3 2 8 11 7 15 9 8 12 6 7 5 2 5 10 19 20 14 16 16 17 17 17 16 16 16 16 15 14 14 12 12 12 12 12 12 10 10 9 9 10 10 11 12 11
14 11 4 3 2 7 4 12 13 19 16 16 14 14 9 8 12 19 12 21 19 16 16 15 18 18 17 16 16 16 16 14 12 13 13 10 12 11 11 10 9 9 8 8 7 9 9 9 9
4 11 3 3 3 6 9 12 14 19 21 16 7 14 7 16 16 7 21 21 20 17 18 17 17 17 17 16 15 16 15 14 12 12 12 12 11 11 9 9 8 7 8 7 8 7 8 7 8
3 3 3 3 5 8 15 14 17 20 19 16 17 12 15 15 16 11 21 20 17 15 18 19 18 17 16 15 16 15 15 14 10 9 10 10 10 11 10 7 7 8 7 6 7 6 8 8 7
8 5 3 5 5 12 11 17 17 14 19 19 19 17 17 15 21 21 21 20 19 13 14 17 18 17 16 14 13 13 13 14 13 11 8 6 6 7 8 9 7 6 7 7 6 7 7 7 7
5 1 4 4 4 13 11 14 14 16 21 20 20 18 10 10 8 18 19 18 16 17 16 16 17 16 15 15 14 12 11 10 10 9 8 6 4 3 5 7 8 7 7 8 8 6 7 7 8
7 5 4 9 12 12 16 17 11 10 16 14 20 14 8 8 7 19 18 18 16 17 15 15 15 14 14 13 13 12 11 10 8 7 6 5 5 4 4 5 6 7 6 5 7 6 7 7 8
6 3 4 1 5 6 17 13 10 8 9 22 22 7 14 11 10 13 15 18 16 14 12 13 16 16 13 10 10 8 8 9 8 8 9 6 6 6 6 6 6 5 6 5 6 8 9 9 9
8 3 3 3 8 2 13 12 12 13 17 14 8 18 18 16 11 14 13 14 11 11 13 11 12 15 17 15 14 14 13 10 10 10 9 9 9 9 10 8 7 7 7 7 6 6 8 9 9
5 4 5 4 8 3 10 21 11 15 14 18 19 16 18 15 10 11 12 12 9 11 10 9 8 10 14 14 15 15 14 14 14 14 13 11 12 13 11 12 7 10 8 7 5 4 5 8 9
3 6 9 15 11 13 23 25 17 4 11 13 17 14 15 13 8 9 8 8 16 13 9 9 9 9 8 5 11 11 9 11 14 16 14 13 9 3 1 2 7 8 6 3 3 2 5 8 11
6 17 19 8 12 7 26 8 9 12 11 18 16 16 13 9 9 9 10 9 9 12 11 10 8 7 8 7 6 7 6 6 5 7 8 2 6 4 5 7 4 5 2 3 5 5 8 12 9
11 25 23 19 15 18 21 27 5 9 7 16 16 15 14 11 10 8 8 11 8 11 9 11 7 7 6 4 5 7 5 5 6 9 6 7 4 3 7 7 4 7 3 11 8 8 9 13 14
17 19 8 9 10 19 20 7 15 5 6 6 13 10 11 11 10 7 8 8 8 10 10 13 10 8 10 8 5 1 2 2 6 8 9 12 9 4 4 5 5 2 8 10 11 7 11 10 16
17 10 8 3 7 8 19 3 14 12 12 2 4 10 9 11 10 9 8 8 9 8 10 9 8 7 7 5 4 5 6 5 8 8 8 12 7 5 4 1 1 3 6 11 11 10 12 6 13
15 5 2 6 3 11 10 7 14 9 11 7 5 12 11 9 11 9 9 8 9 8 11 8 7 8 6 5 4 3 6 3 7 8 5 2 6 6 6 2 2 4 1 3 1 4 2 5 10
8 5 11 11 19 14 4 5 18 10 9 10 8 12 12 11 9 8 9 8 9 9 12 8 8 7 6 5 4 5 3 3 5 7 6 6 7 7 5 3 4 7 5 4 4 2 3 6 5
4 6 13 18 16 17 11 10 10 18 18 14 10 10 11 10 11 12 11 10 9 10 9 9 7 7 7 5 4 3 3 2 4 2 2 3 6 6 4 3 6 6 3 4 4 4 3 4 5
8 10 11 7 17 6 15 14 15 16 14 11 14 8 5 8 12 14 13 13 12 12 11 10 8 6 4 2 2 2 2 1 2 2 6 3 4 5 4 3 4 5 5 3 5 3 4 4 6
7 8 9 13 23 4 15 17 10 16 10 8 16 16 18 12 13 13 10 13 14 13 12 10 8 7 5 3 2 2 3 2 2 2 6 9 9 11 8 5 4 2 2 3 1 5 2 4 3
6 15 9 18 8 18 7 8 8 2 15 21 27 22 10 16 17 17 14 13 13 13 13 11 8 7 6 5 4 3 3 2 1 2 2 5 8 6 7 5 2 3 2 3 1 2 2 2 2
5 7 10 11 15 9 6 4 4 7 4 14 17 9 13 17 18 15 14 10 12 12 12 11 10 8 6 7 4 4 3 3 3 2 2 1 1 2 5 6 6 5 3 4 2 2 2 2 4
5 10 8 6 11 2 5 4 2 4 5 6 4 8 19 21 20 18 16 13 9 13 12 13 10 7 6 6 4 5 3 3 2 2 3 1 2 4 8 9 6 6 4 5 5 5 4 1 2
8 8 7 5 2 4 6 2 4 6 9 5 9 13 21 21 20 17 14 11 8 12 13 11 9 5 7 6 2 5 3 3 4 0 1 2 2 4 6 7 6 5 6 4 3 4 4 4 4
5 2 3 3 4 5 6 7 7 3 5 7 9 11 16 19 18 9 9 10 10 13 13 9 7 7 6 5 3 3 3 5 5 4 4 5 5 3 4 4 4 4 4 4 4 5 4 3 2
9 8 6 6 3 4 8 3 3 2 5 6 6 9 13 23 25 17 25 11 13 13 12 11 8 7 5 4 4 2 5 4 5 7 4 4 3 3 3 3 5 5 5 4 4 2 2 3 4
10 4 10 2 3 2 4 6 3 17 14 8 3 7 11 27 26 22 17 12 13 9 13 14 7 8 6 6 5 8 6 9 8 7 5 3 2 2 5 4 5 5 4 4 5 3 5 5 4
8 5 2 3 3 5 1 0 4 4 4 11 18 6 9 12 21 18 15 15 9 13 14 14 11 8 7 9 7 5 5 6 7 4 3 4 2 3 4 5 5 5 6 6 6 6 6 6 5
2 5 3 3 4 5 3 6 7 10 8 15 9 18 9 10 12 12 14 14 13 11 13 10 9 11 10 8 6 8 7 8 1 6 5 5 2 2 3 5 5 5 6 6 6 5 7 8 7
8 6 7 5 9 2 5 6 9 8 12 6 13 24 8 9 8 9 10 14 13 12 12 10 9 11 9 7 5 6 4 5 2 6 6 4 2 4 6 6 6 6 5 6 6 6 6 6 7
Wind_Direction
162 165 192 232 277 208 77 68 35 77 62 71 71 105 124 104 122 154 128 128 124 123 127 121 121 127 134 135 134 136 138 135 136 132 130 120 115 114 113 100 100 98 104 110 114 116 111 116 121
161 165 212 280 219 74 51 87 67 103 111 98 90 94 85 88 111 123 121 129 123 135 124 123 120 120 127 136 136 140 141 141 140 139 138 130 124 122 123 118 107 105 108 114 121 123 121 125 129
172 216 277 229 286 91 78 64 86 90 94 89 101 78 68 115 126 109 133 131 136 130 123 127 120 117 121 127 134 139 140 141 141 141 143 144 141 138 135 134 143 128 111 118 128 133 134 137 142
235 17 249 314 117 94 102 93 72 89 80 106 107 72 81 93 102 119 131 131 113 116 129 129 125 124 125 124 131 138 138 139 143 151 153 154 154 148 142 145 149 154 138 119 135 147 143 148 153
43 304 329 286 288 109 115 115 111 104 105 102 93 99 97 103 108 107 115 118 116 117 132 130 131 132 130 126 123 131 142 144 150 162 168 173 171 161 145 148 148 145 148 153 147 156 156 160 169
111 176 340 306 238 107 104 99 104 115 110 110 98 104 109 127 125 128 123 121 130 135 137 135 133 133 134 135 136 139 143 146 155 164 173 176 191 178 149 141 140 145 146 165 161 169 173 169 182
131 150 253 265 359 79 99 91 84 93 125 118 134 122 146 142 152 124 131 131 128 134 135 137 135 140 142 145 146 148 149 153 162 173 182 178 176 194 194 166 162 155 154 158 166 185 184 189 184
136 153 246 124 280 9 96 97 115 120 88 131 140 145 155 151 131 128 131 130 134 143 143 145 145 147 149 151 152 151 162 167 173 186 194 199 202 213 224 206 189 179 154 183 185 194 192 190 194
150 76 267 174 218 184 109 112 101 86 77 74 104 134 142 146 148 132 132 127 139 150 149 152 156 159 163 166 170 171 177 186 188 194 198 201 211 224 230 220 228 196 193 188 196 197 205 193 211
94 130 255 110 354 308 87 50 4 116 99 90 95 117 135 142 148 135 151 148 146 148 148 154 163 164 161 167 171 185 189 192 202 196 197 202 230 232 226 243 225 205 206 201 192 226 219 217 215
124 219 215 236 221 233 92 101 298 253 128 137 136 136 141 150 147 154 159 163 158 163 155 160 160 156 157 136 162 184 215 203 207 202 204 198 226 151 213 253 191 207 206 245 233 238 242 231 230
319 270 257 250 207 122 69 92 236 246 151 139 140 146 146 162 156 177 168 165 144 158 150 156 165 141 168 174 180 233 198 206 113 111 150 55 175 158 81 120 107 138 102 108 18 323 277 257 258
217 250 255 242 162 101 90 74 320 346 46 127 144 150 155 165 167 183 158 159 154 140 154 156 163 154 166 152 176 227 182 195 189 155 173 264 237 158 142 112 179 182 151 77 64 3 326 303 285
214 241 288 165 148 117 112 160 168 216 81 101 147 160 166 162 169 174 147 150 142 141 144 162 166 171 149 157 180 232 282 263 179 166 198 200 225 158 130 143 211 246 104 106 97 281 296 292 276
312 239 308 292 137 109 122 86 161 209 110 161 235 176 176 167 167 173 165 154 155 155 151 153 148 151 154 136 123 159 211 246 120 122 171 202 162 165 128 138 201 188 139 130 148 203 257 257 280
296 68 5 304 323 172 78 230 229 216 143 183 339 191 168 163 160 164 152 157 140 145 140 146 147 149 143 119 108 98 330 13 112 135 162 111 181 181 152 157 248 222 126 110 162 230 247 266 269
2 56 10 334 325 310 153 197 229 179 188 172 191 262 165 158 155 150 148 150 148 146 145 143 138 140 140 122 99 80 52 32 119 161 183 183 207 206 165 164 245 220 134 191 205 279 293 263 261
98 74 354 311 288 306 293 238 193 191 204 199 176 237 149 162 164 159 157 153 151 147 135 133 134 141 130 123 108 98 83 85 21 320 228 223 233 220 170 184 245 230 189 184 220 194 195 240 264
155 104 230 265 260 313 269 265 183 184 190 203 47 108 149 217 169 167 166 158 159 151 140 148 145 150 136 128 132 140 151 145 151 255 279 235 205 224 208 217 239 235 229 246 183 158 199 262 245
172 137 225 241 256 251 276 278 197 159 181 161 160 181 189 191 179 173 163 161 165 157 155 151 147 148 157 158 182 122 150 183 188 216 247 251 225 202 195 213 235 268 309 334 344 188 223 232 199
244 159 187 244 235 286 268 297 86 28 137 170 176 197 178 184 186 172 170 163 163 160 154 149 149 155 165 138 110 86 54 78 75 226 244 233 227 193 189 199 222 343 18 10 23 21 32 249 270
254 258 217 240 155 209 165 248 66 153 238 170 195 224 186 187 177 168 166 164 160 162 137 141 147 164 171 154 132 138 168 161 212 163 146 352 70 12 30 94 80 74 73 48 4 340 237 188 237
259 288 294 311 314 262 308 89 238 128 251 238 264 227 210 182 160 165 167 167 158 154 138 142 146 169 147 160 173 165 185 214 147 116 116 186 295 20 67 71 60 51 46 30 24 6 352 248 220
259 269 310 331 352 358 295 209 222 184 210 256 227 254 162 153 157 163 160 156 146 136 134 133 145 140 142 149 150 162 195 111 101 102 272 265 136 62 58 58 63 62 37 19 8 2 1 16 353
274 16 333 349 323 215 300 15 254 227 222 186 177 133 137 147 148 101 151 158 126 129 136 129 129 129 137 144 171 171 262 144 146 89 34 32 86 79 73 76 68 59 48 12 5 34 24 14 6
240 170 163 210 204 264 343 271 193 63 111 79 120 152 134 111 98 105 259 138 128 127 137 119 130 120 120 169 167 198 22 38 36 54 30 67 93 112 93 78 94 77 49 36 25 359 5 353 20
269 180 222 203 285 100 232 333 159 30 14 350 176 120 129 137 153 182 199 132 131 139 129 130 137 134 158 193 84 62 56 76 60 23 48 66 56 79 53 87 96 94 72 52 15 358 18 26 15
185 214 299 335 259 286 49 297 218 52 358 38 2 82 97 126 150 153 145 140 141 150 140 135 139 135 112 95 93 97 62 87 106 107 343 103 80 61 71 90 92 79 64 41 35 31 25 45 21
258 265 267 143 142 182 182 245 196 194 120 90 260 291 109 113 130 142 144 147 146 125 121 124 119 115 103 101 107 102 121 107 167 180 143 103 85 111 98 89 92 85 74 62 45 45 42 43 26
192 215 186 132 281 130 165 270 148 72 44 133 222 280 117 128 144 139 137 125 123 112 129 115 117 115 114 117 123 124 129 138 173 109 116 112 100 53 63 68 78 86 94 83 74 57 52 49 38